Voltar ao catálogo

STARLINK-31704

AtivoComunicaçõesVLEO
NORAD 59586·PAYLOAD·🇺🇸 United States

Lançado Apr 23, 2024 de Cape Canaveral Space Force Station

Loading…

Próximas Passagens (próximas 24 horas)

TLE

AtualizadoSource: CelesTrak SupGP

Época: Sep 15, 2026, 03:39 UTC

1 59586C 24076Y   26258.15256944  .00085425  00000+0  63433-3 0  2584
2 59586  42.9810 297.2260 0026636  68.7828 279.1711 15.71348124    14

Acompanhe STARLINK-31704 em tempo real com AllMySat

Download on the App Store